Find Starlink 34711

NORAD ID: 64912 Int'l Des: 2025-157 Owner: SPXS Country: US Constellation: starlink operational
LEOCIRCULAR

リアルタイム位置

3D地球を読み込み中...

Starlink 34711について

説明を読み込み中...

次回通過

Passes for default location (London). Set your location on the main map for personalized predictions.

高度履歴

Loading altitude history...

軌道要素

1 64912U 25157J 26104.49298422 .00010050 00000-0 35092-3 0 9993
2 64912 53.1577 179.4951 0000694 90.7018 269.4062 15.30204892 41606
Epoch: Apr 14, 2026 • Age: 18 hours

現在のステータス

高度 493.7 km
速度 7.62 km/s
衛星直下点 -52.02°S, 132.12°E
打ち上げ日 Jul 26, 2025
運用期間 0.7 years
タイプ internet

技術仕様

分類 Payload
質量 575.00 kg
乾燥質量 530.00 kg
総質量 575.00 kg
長さ 0.30 m
直径 4.10 m
スパン 29.00 m
形状 Box + pan
製造者 SPXS
バスタイプ Starlink V2MO
フェーズステータス In Orbit
所有者/国 SPXS/US

Most Searched